Home > Time Zones > World Clock > Weather > Ghana > Accra > Past weeks

Flag for Ghana Weather past 2 weeks in Accra, Ghana

Now
81 °F

Sunny.


Feels Like: 85 °F
Forecast: N/A
Wind: 22 mph from Southwest

Location: Accra Airport

Current Time: Sep 23, 2014 at 4:36:57 PM

Latest Report: Sep 23, 2014 at 4:00 PM


Visibility: 10 mi

Pressure: 29.83 "Hg

Humidity: 79%

Dew point: 73 °F

Location of AccraLocation

Historic Weather in Accra — Graph

°F

Accra temperature yesterday

Maximum temperature yesterday: 82 °F (at 10:50 AM)
Minimum temperature yesterday: 75 °F (at 3:00 AM)
Average temperature yesterday: 78 °F

Past Weeks' High & Low Weather Summary

 TemperatureHumidityPressure
High84 °F (Sep 9, 1:00 PM)100% (Sep 12, 7:55 AM)30.04 "Hg (Sep 12, 7:55 AM)
Low70 °F (Sep 12, 7:55 AM)66% (Sep 10, 2:00 PM)29.83 "Hg (Sep 9, 4:00 PM)
Average78 °F86%29.92 "Hg
* Reported Sep 8 3:52 PM — Sep 23 3:00 PM, Accra, Weather by CustomWeather, © 2014

Note: Actual official high and low records may vary slightly from our data, if they occured in-between our weather recording intervals... More about our weather records

Advertising

Accra weather history for previous 24 hours

 ConditionsComfort  
Time TempWeatherWind HumidityBarometerVisibility
3:00 PM
Sep 23
84 °FPassing clouds.20 mph74%29.83 "HgN/A
1:52 PM84 °FPassing clouds.20 mph70%29.86 "HgN/A
1:00 PM84 °FPassing clouds.15 mph70%29.89 "HgN/A
12:00 PM84 °FOvercast.14 mph70%29.92 "HgN/A
10:51 AM84 °FPartly sunny.10 mph70%29.95 "HgN/A
9:59 AM82 °FPartly sunny.12 mph70%29.98 "HgN/A
9:00 AM82 °FPassing clouds.12 mph74%29.98 "HgN/A
8:00 AM79 °FPassing clouds.12 mph84%29.95 "HgN/A
7:00 AM77 °FSunny.7 mph89%29.95 "Hg10 mi
6:00 AM75 °FPassing clouds.6 mph94%29.92 "HgN/A
5:00 AM75 °FPassing clouds.6 mph94%29.92 "HgN/A
4:00 AM75 °FPassing clouds.7 mph94%29.89 "HgN/A
3:00 AM77 °FOvercast.8 mph89%29.89 "HgN/A
2:00 AM77 °FOvercast.6 mph89%29.89 "HgN/A
1:00 AM77 °FMostly cloudy.7 mph94%29.89 "HgN/A
12:00 AM77 °FMostly cloudy.9 mph94%29.92 "HgN/A
11:00 PM
Sep 22
77 °FOvercast.9 mph89%29.92 "HgN/A
10:00 PM77 °FPassing clouds.8 mph89%29.92 "HgN/A
9:00 PM77 °FPassing clouds.10 mph89%29.89 "HgN/A
8:00 PM77 °FPassing clouds.12 mph89%29.89 "HgN/A
7:00 PM77 °FPassing clouds.12 mph89%29.86 "HgN/A
5:48 PM77 °FPartly sunny.12 mph89%29.86 "HgN/A
4:48 PM79 °FPartly sunny.12 mph84%29.86 "HgN/A
Weather by CustomWeather, © 2014

See weather overviewHow to use our weather pages